Regional Weather Roundup
Issued by NWS

Home | Current Version | Previous Version | Text Only | Print | Product List | Glossary On
Versions: 1 2 3 4 5 6 7 8 9 10 11 12 13 14 15 16 17 18 19 20 21 22 23 24 25 26 27 28 29 30 31 32 33 34 35 36 37 38 39 40 41 42 43 44 45 46 47 48 49 50
000
ASUS43 KBIS 280010
RWRND

NORTH DAKOTA REGIONAL WEATHER ROUNDUP
NATIONAL WEATHER SERVICE BISMARCK ND
600 PM CST MON FEB 27 2017

NOTE: "FAIR" INDICATES FEW OR NO CLOUDS BELOW 12,000 FEET WITH NO
SIGNIFICANT WEATHER AND/OR OBSTRUCTIONS TO VISIBILITY.


NDZ001>003-009>011-017-280100-
NORTHWEST NORTH DAKOTA

CITY           SKY/WX    TMP DP  RH WIND       PRES   REMARKS
WILLISTON      FAIR      16   8  71 SE8       29.82R WCI   5
6HR MIN TEMP:  13; 6HR MAX TEMP:  17; 6HR PCP:  0.01;

MINOT          CLOUDY    13   7  77 N7        29.85R WCI   3
MINOT AFB      PTCLDY    10   4  77 NE6       29.85S WCI   0
$$

NDZ018>021-031>035-040>046-280100-
SOUTHWEST NORTH DAKOTA

CITY           SKY/WX    TMP DP  RH WIND       PRES   REMARKS
BISMARCK       CLOUDY    21  15  78 NE15      29.82R WCI   8
6HR MIN TEMP:  21; 6HR MAX TEMP:  25;

DICKINSON      LGT SNOW  16  12  84 E14       29.72S FOG     WCI   2
GARRISON         N/A     13   8  81 NE6       29.83R WCI   4
6HR MIN TEMP:  13; 6HR MAX TEMP:  16; 6HR PCP:  0.02;

HETTINGER ARPT CLOUDY    24  18  77 NE10      29.71R WCI  14
$$

NDZ004>008-012>016-024-026-027-054-280100-
NORTHEAST NORTH DAKOTA

CITY           SKY/WX    TMP DP  RH WIND       PRES   REMARKS
GRAND FORKS    CLOUDY    21  12  68 N15       29.91R WCI   8
GRND FRKS AFB  CLOUDY    20  16  83 NE14      29.90R WCI   7
DEVILS LAKE    LGT SNOW  16  12  86 NE7       29.88R FOG     WCI   6
$$

NDZ022-023-025-028>030-036>039-047>053-280100-
SOUTHEAST NORTH DAKOTA

CITY           SKY/WX    TMP DP  RH WIND       PRES   REMARKS
FARGO          MOCLDY    30  23  75 N13       29.82R WCI  20
6HR MIN TEMP:  29; 6HR MAX TEMP:  34;

JAMESTOWN      CLOUDY    25  19  78 NE13      29.80R WCI  14
$$




USA.gov is the U.S. government's official web portal to all federal, state and local government web resources and services.